Location: Umburanas
(4.5000°S, 37.9667°W)
Time: 20:32:20
(UTC+00:00)

Cosmos 1092 Rocket - Pass Details

Date: 19 November 2019
Orbit: 954 x 995 km, 82.9° (Epoch: 11 December)

Event Time Altitude Azimuth Distance (km) Brightness Sun altitude
Rises 21:52:19 0° 172° (S) 3,687 7.2 -20.6°
Reaches altitude 10° 21:54:56 10° 166° (SSE) 2,742 6.5 -21.2°
Maximum altitude 22:00:57 48° 93° (E) 1,276 4.2 -22.6°
Enters shadow 22:01:49 45° 70° (ENE) 1,323 4.2 -22.8°
